Portada
METAR-TAF:

METAR-TAF

Aeropuertos :

Bojnourd, Irán

latitud: 37-28N, longitud: 057-20E, altitud: 1074 m

Observación

El informe se hizo hace 52 minutos, a las 11:00 UTC
Viento 16 kt del oeste-noroeste
Temperatura 15°C
Humedad 44%
Presión 1019 hPa
Visibilidad 10 km o más
Escasas nubes a una altura de 3000 ft
Escasas nubes a una altura de 4000 ft, Cumulonimbus.

METAR: OIMN 231100Z 30016KT 9999 FEW030 FEW040CB 15/03 Q1019

Hora: 15:22 (11:52 UTC)


TAF: falta

Observaciones y pronósticos meteorológicos de más de 4000 aeropuertos (mensajes METAR y TAF).

Los puntos amarillos y rojos representan las estaciones disponibles.

Ponga el ratón en el punto deseado para ver el nombre de la estación.

Haga clic para ver las observaciones y los pronósticos meteorológicos.

Para cambiar el mapa : haga clic en los botones verdes con una cruz de color negro para hacer un zoom, en el botón verde con un guión para alejar o en las flechas verdes para mapas adyacentes.


METAR-TAF: